Location: Fundy National Park
(45.6138°N, 65.0316°W)
Time: 15:56:51
(UTC-03:00)

N. Korean satellite - Visible Passes

Search period start: 19 October 2021 00:00
Search period end: 29 October 2021 00:00
Orbit: 450 x 495 km, 97.3° (Epoch: 18 October)

Date Brightness Start Highest point End Pass type
(mag) Time Alt. Az. Time Alt. Az. Time Alt. Az.
19 Oct 7.2 06:30:35 10° NNE 06:34:13 62° E 06:37:50 10° S visible
20 Oct 8.8 06:02:52 10° NE 06:06:04 28° E 06:09:14 10° SSE visible
21 Oct 10.0 05:35:52 10° ENE 05:37:47 14° E 05:39:41 10° ESE visible
21 Oct 6.9 07:07:43 10° N 07:11:14 44° WNW 07:14:43 10° SW visible
22 Oct 6.7 06:39:32 10° NNE 06:43:13 81° ESE 06:46:51 10° S visible
22 Oct 10.0 18:50:30 10° SW 18:52:33 15° W 18:54:39 10° NW visible
23 Oct 8.3 06:11:39 10° NNE 06:15:04 35° E 06:18:25 10° SSE visible
24 Oct 9.7 05:44:19 10° NE 05:46:47 17° E 05:49:14 10° SE visible
24 Oct 7.2 07:16:45 10° N 07:20:07 34° WNW 07:23:25 10° SW visible
25 Oct 6.5 06:48:25 10° N 06:52:05 78° WNW 06:55:42 10° SSW visible
25 Oct 10.3 19:00:12 10° WSW 19:01:31 12° W 19:02:51 10° WNW visible
26 Oct 7.8 06:20:25 10° NNE 06:23:57 45° E 06:27:25 10° S visible
27 Oct 9.3 05:52:49 10° NE 05:55:40 21° E 05:58:29 10° SE visible
28 Oct 10.3 05:26:50 10° E 05:27:16 10° E 05:27:41 10° E visible
28 Oct 6.6 06:57:16 10° N 07:00:51 59° WNW 07:04:24 10° SSW visible
